Location: Kalberh�ni
(46.4610°N, 7.2453°E)
Time: 04:45:26
(UTC+00:00)

Cosmos 2333 Rocket - Pass Details

Date: 25 October 2021
Orbit: 837 x 865 km, 70.8° (Epoch: 05 December)

Event Time Altitude Azimuth Distance (km) Brightness Sun altitude
Rises 18:08:02 0° 182° (S) 3,382 5.4 -18.0°
Reaches altitude 10° 18:10:35 10° 175° (S) 2,455 4.5 -18.5°
Maximum altitude 18:15:48 40° 107° (ESE) 1,227 2.6 -19.4°
Enters shadow 18:17:08 35° 75° (ENE) 1,346 2.7 -19.6°
